Theta_e
303 297 292 296 300 300 296 294 293 294 297 297 296 297 300 301 302 303 304 304 302 301 303 305 306 307 307 310 316 324 328 332 334 334 332 330 329 331 333 334 334 333 334 333
296 292 297 298 298 297 296 294 293 294 297 296 294 295 297 298 298 298 297 298 299 301 303 304 305 306 307 307 308 312 322 328 331 333 334 333 333 334 334 335 334 334 333 333
290 292 295 297 295 294 295 294 295 294 294 294 292 292 293 295 295 298 299 300 300 299 300 302 304 305 307 307 306 308 312 321 327 331 332 332 332 332 331 332 332 333 333 333
293 296 293 294 294 295 290 295 295 293 291 287 292 287 291 292 294 295 296 298 299 300 301 301 303 304 306 307 309 308 310 312 321 328 329 328 327 326 329 330 331 332 333 333
291 293 292 289 291 296 292 296 295 293 292 291 289 286 289 291 291 293 295 296 297 299 300 300 301 303 305 307 309 310 311 311 312 318 327 327 326 327 329 329 329 330 331 331
294 298 297 295 294 294 296 294 293 292 289 284 290 287 286 287 290 292 294 295 296 297 298 300 301 302 303 305 305 307 307 306 309 312 313 313 313 315 317 317 318 320 321 323
292 293 297 297 291 295 294 290 283 281 281 281 285 283 284 290 291 292 292 294 296 296 297 298 298 299 300 301 302 303 304 303 305 307 308 311 312 313 313 313 314 315 316 317
285 283 293 297 293 291 291 288 284 277 278 281 284 281 284 291 292 292 292 294 296 296 296 297 298 299 299 299 300 301 301 301 302 303 304 306 307 308 308 309 309 309 310 311
285 283 292 295 296 295 291 286 290 282 278 281 283 284 289 291 289 290 291 292 293 294 295 296 297 298 298 298 298 298 298 298 299 300 301 301 301 302 303 304 304 304 305 305
288 283 289 292 296 296 293 293 285 287 278 276 280 281 284 287 286 289 290 291 292 293 294 295 296 297 296 296 296 297 296 294 295 297 297 297 297 297 298 299 299 299 300 301
291 288 286 291 289 289 290 289 289 288 285 278 277 281 291 287 288 288 289 291 292 292 293 294 296 296 295 295 294 294 293 293 293 294 295 294 294 294 295 295 295 295 297 297
291 287 283 285 288 292 292 289 289 285 281 283 283 281 291 290 290 290 289 290 292 292 293 294 295 295 294 293 292 292 292 291 291 292 293 292 292 292 292 292 292 293 293 294
291 285 280 281 285 289 287 289 290 289 287 282 281 282 291 291 292 289 290 290 291 291 292 293 294 293 292 292 291 290 290 289 289 290 290 290 289 289 289 290 290 291 291 292
293 286 283 279 281 286 284 286 289 288 283 283 284 284 286 289 289 289 289 290 290 291 291 293 293 292 291 290 289 288 288 288 287 288 288 287 286 285 286 287 287 288 289 289
287 281 282 282 283 285 284 285 286 285 285 283 284 285 287 288 287 288 289 288 288 288 289 291 292 292 291 289 287 286 286 286 285 285 285 284 284 284 284 285 285 286 287 288
285 279 278 275 279 279 281 284 284 285 285 284 284 283 288 288 288 287 288 288 287 288 289 290 291 290 288 285 284 283 283 284 283 283 282 282 282 282 282 283 283 284 285 286
283 279 277 276 273 274 276 277 281 283 284 285 280 283 285 284 285 286 287 288 288 288 289 289 290 289 286 284 282 282 282 282 282 281 281 280 280 280 280 281 281 282 283 285
279 275 274 275 272 271 278 281 281 280 282 285 284 283 284 284 286 287 289 289 288 288 288 289 290 287 284 282 281 280 282 280 280 279 279 279 278 278 279 279 279 280 282 283
283 279 271 275 273 273 277 278 279 278 279 282 282 283 283 284 285 285 288 288 288 288 288 288 284 282 280 279 278 279 279 278 277 277 277 277 277 277 278 277 278 279 280 281
281 279 278 271 271 270 276 281 283 283 275 283 284 283 283 284 279 283 287 288 288 288 287 283 281 280 279 277 277 277 277 276 275 275 275 276 276 276 277 277 277 277 278 279
275 275 273 271 272 275 279 282 283 274 277 284 285 284 284 282 284 287 288 287 286 285 283 281 280 278 276 275 275 275 274 273 273 274 275 275 275 275 276 276 277 277 277 277
274 274 274 272 271 270 282 280 278 283 284 286 286 285 284 285 286 286 285 284 283 281 280 278 277 276 274 273 273 273 272 272 273 273 274 274 274 274 275 275 276 277 277 277
273 277 277 276 277 282 283 285 286 286 285 285 285 286 285 284 285 284 283 282 281 279 277 276 274 274 273 271 271 271 271 272 272 271 272 273 273 273 274 274 275 276 277 277
277 279 278 277 282 281 283 285 285 286 285 285 285 285 285 283 283 281 280 280 278 277 275 274 273 273 271 270 270 270 270 270 269 270 271 272 271 271 273 273 274 274 275 275
281 279 278 277 281 282 284 284 285 285 285 283 283 282 282 281 280 279 278 277 277 275 274 273 272 271 270 269 269 269 269 268 269 269 270 271 271 271 271 272 272 272 274 275
280 279 277 278 283 283 283 284 285 284 284 284 282 280 279 279 278 277 276 276 275 274 273 271 270 269 268 268 268 268 267 267 266 269 270 270 269 269 269 269 270 273 273 274
Wind_Speed
4 9 15 16 15 8 7 6 6 3 2 1 4 8 5 5 6 8 10 9 9 9 8 10 11 10 8 6 7 9 10 11 9 8 7 8 9 9 9 9 12 12 12 13
5 13 7 5 8 13 11 11 7 3 4 1 1 6 5 5 6 9 10 10 11 10 11 13 13 13 12 10 9 7 7 8 8 7 7 7 5 6 8 7 9 11 12 12
8 2 7 8 9 13 12 16 14 6 4 4 2 4 2 7 12 11 12 9 12 12 13 14 14 14 14 14 13 11 8 6 6 8 6 6 6 6 6 6 7 8 10 11
5 2 7 7 10 11 12 3 10 13 7 6 3 2 3 6 12 14 13 14 14 14 14 13 14 15 15 13 12 12 13 12 7 4 5 7 7 7 6 6 6 7 8 10
5 6 6 5 5 8 3 8 8 4 7 6 5 3 4 5 9 10 11 12 13 13 14 15 15 14 15 14 13 12 14 15 14 12 6 4 5 6 6 6 8 9 7 8
3 1 2 2 4 2 13 10 9 6 2 7 11 8 2 2 5 8 9 11 12 12 13 14 13 13 14 14 14 14 15 15 15 13 12 10 8 7 6 7 6 5 5 6
6 3 2 3 8 4 2 12 3 3 4 7 3 4 6 6 7 6 7 10 11 11 12 14 15 15 15 15 15 13 15 15 14 13 13 12 11 9 8 8 6 8 6 6
10 7 5 4 2 8 8 9 5 8 6 4 1 6 6 5 4 3 5 7 10 12 11 12 13 13 13 14 15 15 15 15 15 14 14 12 12 8 7 8 7 6 7 8
6 4 2 4 1 4 6 4 2 7 2 3 8 5 3 1 2 3 8 10 11 11 11 11 11 11 12 13 14 14 14 14 15 15 12 13 13 13 11 12 10 9 10 9
2 7 3 2 1 6 1 5 3 0 7 4 5 7 8 10 6 7 10 10 10 10 11 9 10 10 10 10 11 12 13 14 13 14 13 12 13 12 11 10 12 13 12 13
3 2 3 3 3 3 4 5 4 3 1 3 5 5 10 10 7 9 7 6 8 9 9 8 8 8 9 10 11 11 12 12 12 12 11 11 12 12 11 11 11 12 13 13
3 5 5 4 2 2 2 3 3 4 5 1 1 5 12 9 5 4 3 6 6 7 8 7 8 8 9 10 10 11 11 12 12 12 11 11 11 11 11 11 12 12 12 12
1 2 6 4 1 3 1 3 4 5 2 3 3 5 7 0 6 4 5 7 9 9 9 7 8 9 9 9 10 11 11 12 12 12 12 12 12 13 13 13 13 13 13 13
2 4 2 5 4 2 5 5 6 5 3 6 1 10 6 6 9 6 8 9 9 8 9 8 7 6 6 6 7 9 10 11 12 12 12 12 13 13 13 13 13 13 13 13
4 5 5 7 5 3 3 6 5 4 5 5 7 7 10 4 2 5 5 6 6 8 9 8 7 7 7 7 7 7 8 9 10 10 10 11 11 12 12 12 12 12 12 12
3 4 3 3 5 6 3 3 4 3 2 2 3 3 3 5 4 5 6 4 3 7 11 12 9 7 7 7 7 8 9 9 9 9 9 9 11 11 11 12 13 12 12 11
3 5 1 3 4 2 2 4 6 3 3 3 4 3 2 3 3 5 7 5 3 9 13 14 13 9 7 7 8 9 9 9 9 9 10 10 11 12 12 12 11 11 11 11
3 4 3 2 1 3 2 1 2 3 4 5 3 4 6 1 4 9 6 5 8 11 13 12 10 8 6 6 7 9 8 9 9 9 10 10 11 11 11 12 11 11 10 10
6 4 5 2 1 4 4 4 5 5 1 4 6 7 2 1 3 3 3 2 8 11 10 8 6 6 6 7 8 8 7 8 9 10 10 11 11 12 11 11 12 11 10 9
7 8 3 2 3 5 1 4 2 3 3 6 8 5 4 6 8 7 2 8 9 9 6 5 5 4 5 6 7 7 7 7 8 9 10 10 10 10 10 11 11 10 9 8
3 3 3 2 2 6 8 6 2 3 2 11 7 2 3 6 7 9 8 8 6 5 5 3 4 4 4 5 6 6 6 7 8 8 9 9 9 9 9 10 8 9 9 8
3 5 3 3 2 8 7 6 6 2 2 7 6 5 7 7 9 10 8 6 6 5 4 3 4 4 4 5 5 5 5 7 7 8 8 8 8 7 7 8 8 8 8 8
4 5 3 9 6 3 11 2 6 3 5 3 3 4 5 8 9 8 7 6 5 5 4 3 4 4 1 3 3 3 4 6 7 7 6 7 7 7 7 8 8 8 8 7
5 5 3 2 7 15 10 10 8 7 9 5 5 4 5 10 7 7 6 5 5 4 4 3 4 4 3 2 3 3 5 5 6 6 6 6 6 8 7 6 6 6 7 8
3 10 6 6 12 9 13 12 10 9 5 4 3 4 8 6 7 7 7 6 5 5 4 3 4 4 3 3 4 3 4 5 6 6 6 6 6 7 7 6 6 6 7 8
8 9 8 8 7 3 2 3 4 6 7 6 5 4 4 6 7 6 7 6 5 6 4 3 3 3 3 3 4 4 3 4 5 7 5 5 6 6 6 7 8 8 9 13
Wind_Direction
179 202 202 202 207 210 162 140 156 111 68 234 220 257 281 341 316 320 345 349 359 11 355 12 12 9 2 356 307 270 257 243 236 224 230 241 241 243 248 247 251 250 250 246
169 223 204 200 198 185 198 197 190 115 63 262 56 279 335 347 29 31 19 21 20 24 20 18 17 20 22 15 5 339 285 265 242 240 233 241 259 248 252 254 253 254 258 256
205 99 169 165 165 189 198 216 218 215 113 88 281 234 75 85 50 47 42 42 38 32 23 20 23 23 19 17 8 8 358 322 270 252 254 258 267 269 270 267 271 264 252 255
219 71 174 168 178 199 204 191 163 152 166 234 326 232 122 72 60 51 42 42 40 35 36 34 28 25 22 16 18 24 27 25 13 309 260 261 270 286 302 299 302 284 265 259
142 170 148 177 178 183 163 163 151 165 198 187 203 256 115 139 62 57 47 43 36 35 37 40 36 34 32 27 28 34 40 35 28 31 8 332 308 311 320 318 313 311 301 277
110 47 173 112 91 128 134 113 84 78 99 231 219 211 129 91 111 86 65 49 37 31 32 36 36 34 35 31 31 31 36 35 31 36 41 40 31 3 351 349 332 329 316 315
151 118 117 132 105 106 160 150 126 148 211 256 123 168 62 109 91 66 49 47 42 39 35 28 26 27 27 25 23 24 26 31 24 29 32 30 28 29 25 11 359 347 345 344
167 170 178 154 169 176 178 199 181 189 194 157 137 185 120 88 12 28 58 58 49 40 38 36 29 26 23 23 23 20 25 26 22 21 23 24 23 17 17 12 3 360 349 343
151 107 23 46 28 177 168 182 87 104 90 179 141 81 103 184 68 87 69 58 45 33 29 31 30 30 27 24 23 20 21 21 19 19 17 19 17 15 8 5 3 358 352 344
132 117 22 82 41 47 186 129 136 33 157 183 162 170 156 177 110 98 66 51 44 33 27 25 24 24 25 25 20 24 23 22 14 12 13 11 10 8 6 5 2 356 347 345
113 89 102 188 28 149 142 177 75 83 3 159 150 119 133 125 98 87 72 50 35 28 23 23 22 25 26 26 23 22 20 18 15 11 8 9 5 2 1 2 358 352 342 343
23 89 103 74 354 340 66 94 97 210 167 49 13 109 135 105 109 114 87 42 27 22 17 21 24 24 25 20 17 16 12 11 8 1 359 4 1 359 1 357 352 348 344 341
136 35 117 112 54 3 106 120 107 86 35 170 180 124 163 225 20 122 41 17 19 13 22 25 33 26 16 14 7 7 7 2 358 355 356 359 360 357 354 352 348 347 345 341
54 71 52 166 88 108 158 155 168 148 158 150 157 126 186 328 311 0 12 12 12 23 24 30 23 18 15 14 1 359 357 358 352 349 354 356 355 350 348 345 345 344 344 342
60 95 83 75 50 69 97 143 155 164 150 197 138 136 176 252 43 1 340 9 22 16 9 358 352 351 357 359 357 352 352 351 345 346 350 350 345 344 343 344 344 342 343 341
30 103 97 69 33 27 99 112 126 158 180 160 166 247 135 65 24 4 347 336 333 353 348 343 339 347 356 351 347 340 344 345 342 343 345 344 342 341 342 341 341 341 343 344
53 132 88 115 360 345 264 215 198 159 197 152 186 123 79 82 62 328 304 305 289 336 338 335 332 332 338 347 344 343 341 343 346 347 347 345 344 340 340 336 337 339 340 340
102 81 18 103 292 202 53 120 48 266 254 191 127 148 144 188 284 283 275 265 333 334 325 323 327 337 350 345 344 336 344 349 349 347 344 345 342 338 337 336 339 337 337 337
31 113 93 138 204 325 239 206 188 187 168 144 182 154 151 273 251 238 226 55 324 313 315 320 340 346 344 352 347 338 347 349 348 348 343 342 339 336 337 340 337 335 332 336
60 59 78 144 189 206 96 132 188 167 251 165 158 161 3 349 308 314 231 328 308 310 326 334 345 333 344 353 341 335 347 347 351 344 338 337 339 338 340 341 337 336 329 326
34 25 111 158 242 274 233 158 220 168 138 160 174 195 286 276 272 298 300 299 308 313 315 328 329 339 352 347 342 348 349 360 344 335 335 341 344 336 335 331 330 334 339 341
181 149 177 127 188 262 153 103 216 148 122 161 212 254 260 258 280 290 299 298 310 316 321 340 328 337 350 350 341 346 357 342 336 334 331 336 337 334 330 324 325 329 338 342
223 200 184 205 217 237 201 249 185 172 159 216 235 245 240 275 284 297 296 304 305 309 315 314 310 309 333 350 343 328 342 330 329 328 325 329 331 331 329 326 324 326 334 339
226 181 233 178 227 231 233 241 237 229 239 254 237 245 263 278 290 291 292 291 287 280 284 290 294 287 292 338 324 322 327 329 322 321 330 332 330 334 332 325 325 321 322 324
202 157 195 257 274 270 253 229 244 237 228 197 202 225 256 258 264 266 277 280 280 272 264 270 285 296 312 331 321 319 323 327 324 320 322 329 328 331 325 322 316 317 309 318
188 204 202 225 216 230 261 179 202 203 205 216 218 238 237 243 268 275 273 274 272 267 264 253 252 266 273 287 292 301 310 318 320 318 324 328 320 323 318 317 316 313 311 321